Location: Chinatown
(37.7966°N, 122.4086°W)
Time: 05:25:20
(UTC+00:00)

ISS - Visible Passes

Search period start: 14 October 2024 00:00
Search period end: 24 October 2024 00:00
Orbit: 411 x 423 km, 51.6° (Epoch: 13 October)

Date Brightness Start Highest point End Pass type
(mag) Time Alt. Az. Time Alt. Az. Time Alt. Az.
14 Oct -1.0 13:38:53 10° S 13:41:22 20° SE 13:43:51 10° E visible
15 Oct -0.5 12:52:24 10° SE 12:53:18 11° SE 12:54:11 10° ESE visible
16 Oct -3.4 13:38:02 10° SW 13:41:20 65° SE 13:44:37 10° NE visible
17 Oct -2.2 12:51:04 17° S 12:53:03 33° SE 12:56:05 10° ENE visible
18 Oct -1.0 12:05:28 17° ESE 12:05:28 17° ESE 12:07:11 10° E visible
18 Oct -3.2 13:38:25 12° WSW 13:41:19 40° NW 13:44:29 10° NE visible
19 Oct -3.9 12:52:33 67° W 12:52:50 73° NW 12:56:09 10° NE visible
20 Oct -1.1 12:06:30 20° ENE 12:06:30 20° ENE 12:07:39 10° ENE visible
20 Oct -2.0 13:39:26 13° WNW 13:41:20 19° NNW 13:43:48 10° NNE visible
21 Oct -2.3 12:53:12 26° NNW 12:53:12 26° NNW 12:55:33 10° NNE visible
22 Oct -0.7 12:06:49 12° NE 12:06:49 12° NE 12:07:10 10° NE visible
22 Oct -1.4 13:40:17 10° NW 13:41:22 11° NNW 13:42:26 10° N visible
23 Oct -1.4 12:53:14 14° N 12:53:14 14° N 12:54:24 10° NNE visible
